Showing default

RESURS O1, 23342

Orbit data source: Space-Track

RESURS O1, 23342 is a payload satellite owned by Priroda (CIS) in SSO that was launched on Fri, 04 Nov 1994 UTC via a ZENIT-2 launch vehicle from the Tyuratam Missile And Space Complex (TTMTR). Payload-class satellites include a variety of spacecraft equipped with specific instruments for various scientific and technological missions. These include communications satellites like Starlink; space stations such as the ISS; scientific satellites like the Hubble; Earth observation satellites from companies like Planet Labs, Umbra, and HawkEye 360; GPS; miniature CubeSats for education and research; and military/defense satellites.

Loading next visibility...
Identifier
23342, 1994-074A
Orbit
SSO
Country
Flag of CISCIS
Related business
Manufacturer
VNIIEM
Mission
Civil Imaging
Bus & Motor
RESURS-O, Unknown motor
Mass
1,900 kg wet, 1,900 kg dry
Launch date (UTC)
1994-11-04 (31 years ago)
Launch vehicle
ZENIT-2
Launch site
Tyuratam Missile And Space Complex (TTMTR)
Object type
Payload
Rocket body
Debris
Shape & HBR
Cyl + 2 Pan, 5.8 m
Radar Cross Section
11.656 m², Large (>1 m²)

Expand to show TLE details & history
Last TLE update: 11 hours ago

TLE from 11 hours ago
0 RESURS O1
1 23342U 94074A   25259.07512002  .00000663  00000-0  84793-4 0  9998
2 23342  97.6867 282.7016 0000958  98.2504 261.8820 14.84507957663254
Epoch: 2025-09-16T01:48Z
TLE epoch observation values (Epoch: 2025-09-16T01:48:10.369Z)
Latitude
-0.00001°
Longitude
-99.61223°
Altitude
618.259 km
Speed
7.55 km/s
True Right ascension
18h 50m 48s
True Declination
0° 00' 00"
Sunlit
Object was in daylight at epoch
Visualization orbit readout
Latitude
Unknown
Longitude
Unknown
Altitude
Unknown
Speed
Unknown
Apparent Right ascension
Unknown
Apparent Declination
Unknown
Sunlit
N/A
Visualization observer readout
Local Sidereal Time
05:02:22
Azimuth
Unknown
Elevation
Unknown
Doppler factor
Unknown
Orbital elements
Apogee altitude
612.826 km
Perigee altitude
611.486 km
Semi-major axis
6,990.293 km
Eccentricity
0.0001
Inclination
97.6867°
RAAN
282.7016°
Arg. of periapsis
98.2504°
True anomaly
261.87113°
Mean anomaly
261.882°
Eccentric anomaly
261.87657°
Mean motion
3.71364 °/min
Orbital period
96.94 mins
BSTAR
0.000084793
Loading maneuver chart data...
Computing Atmospheric mass density...

Documentation

Showing up to 5 results
|